Back to catalog

COSMOS 397 DEB

AliveLEO
NORAD 5019·DEBRIS·🇷🇺 Russia

Launched Feb 25, 1971 from Baikonur Cosmodrome

Loading…

Next Passes

TLE

Source: Space-Track
1 05019U 71015N   26228.42352689  .00002517  00000-0  41435-3 0  9993
2 05019  65.6806 333.6564 0379190 346.0564  13.0275 14.34439513720863

Track COSMOS 397 DEB in real time with AllMySat

Download on the App Store